N5TM-4 Weather Reports


Display with metric or nautical units.
time (UTC)temp
F
wind
direction
speed
MPH
gust
MPH
rain 1hr
in
rain 24hr
in
rain mn
in
humidity
%
barometer
mb
20260901133524 80 360 0.0 2.0 0.00 0.00 0.00 86 1016.3
20260901133022 80 360 0.0 2.0 0.00 0.00 0.00 86 1016.3
20260901132522 80 360 0.0 3.0 0.00 0.00 0.00 86 1016.2
20260901132021 80 360 0.0 5.0 0.00 0.00 0.00 86 1016.1
20260901131523 79 360 1.0 5.0 0.00 0.00 0.00 87 1016.0
20260901131022 79 5 2.0 4.0 0.00 0.00 0.00 87 1015.9
20260901130521 79 334 0.0 2.0 0.00 0.00 0.00 88 1015.9
20260901130017 79 333 1.0 3.0 0.00 0.00 0.00 88 1015.8
20260901125516 79 330 0.0 3.0 0.00 0.00 0.00 88 1015.7
20260901125016 79 328 0.0 3.0 0.00 0.00 0.00 88 1015.7
20260901124516 79 328 0.0 3.0 0.00 0.00 0.00 88 1015.6
20260901124016 79 336 1.0 4.0 0.00 0.00 0.00 88 1015.5
20260901123516 78 336 1.0 4.0 0.00 0.00 0.00 88 1015.4
20260901123029 78 355 1.0 4.0 0.00 0.00 0.00 88 1015.4
20260901122517 78 30 1.0 3.0 0.00 0.00 0.00 88 1015.3
20260901122016 78 30 1.0 3.0 0.00 0.00 0.00 88 1015.3
20260901121518 78 30 1.0 3.0 0.00 0.00 0.00 88 1015.3
20260901121015 78 30 0.0 1.0 0.00 0.00 0.00 88 1015.3
20260901120513 78 30 0.0 1.0 0.00 0.00 0.00 88 1015.1
20260901120014 78 30 0.0 2.0 0.00 0.00 0.00 88 1015.0
20260901115514 78 30 0.0 2.0 0.00 0.00 0.00 88 1014.9
20260901115014 78 30 0.0 2.0 0.00 0.00 0.00 88 1014.9
20260901114513 78 30 0.0 3.0 0.00 0.00 0.00 88 1015.0
20260901114013 78 30 1.0 3.0 0.00 0.00 0.00 88 1014.9
20260901113513 78 157 1.0 3.0 0.00 0.00 0.00 88 1014.9
20260901113013 78 157 0.0 3.0 0.00 0.00 0.00 88 1014.9
20260901112512 78 157 1.0 2.0 0.00 0.00 0.00 88 1015.0
20260901112012 78 157 0.0 1.0 0.00 0.00 0.00 88 1015.0
20260901111512 78 157 0.0 2.0 0.00 0.00 0.00 88 1015.1
20260901111012 78 157 0.0 2.0 0.00 0.00 0.00 88 1015.1
20260901110511 78 157 0.0 1.0 0.00 0.00 0.00 88 1015.0
20260901110011 78 157 0.0 2.0 0.00 0.00 0.00 88 1014.9
20260901105513 78 157 0.0 2.0 0.00 0.00 0.00 88 1014.9
20260901105010 78 157 0.0 2.0 0.00 0.00 0.00 88 1014.9
20260901104510 78 157 0.0 2.0 0.00 0.00 0.00 88 1014.8
20260901104010 78 157 0.0 1.0 0.00 0.00 0.00 88 1014.8
20260901103510 78 157 0.0 1.0 0.00 0.00 0.00 88 1014.8
20260901103010 78 157 0.0 1.0 0.00 0.00 0.00 87 1014.8
20260901102511 78 157 0.0 1.0 0.00 0.00 0.00 87 1014.7
20260901102010 79 157 0.0 1.0 0.00 0.00 0.00 87 1014.6
20260901101513 79 157 0.0 1.0 0.00 0.00 0.00 87 1014.7
20260901101009 79 157 0.0 1.0 0.00 0.00 0.00 88 1014.8
20260901100508 79 157 0.0 0.0 0.00 0.00 0.00 87 1014.8
20260901100008 79 157 0.0 1.0 0.00 0.00 0.00 88 1014.8
20260901095508 79 157 0.0 1.0 0.00 0.00 0.00 88 1014.8
20260901095007 79 157 0.0 1.0 0.00 0.00 0.00 87 1014.9
20260901094507 79 157 0.0 1.0 0.00 0.00 0.00 87 1014.9
20260901094007 79 157 0.0 1.0 0.00 0.00 0.00 87 1014.9
20260901093509 79 157 0.0 0.0 0.00 0.00 0.00 87 1015.0
20260901093006 79 157 0.0 0.0 0.00 0.00 0.00 87 1014.9
20260901092506 79 157 0.0 0.0 0.00 0.00 0.00 86 1014.9
20260901092006 79 157 0.0 0.0 0.00 0.00 0.00 86 1014.9
20260901091505 79 157 0.0 0.0 0.00 0.00 0.00 86 1014.9
20260901091007 79 157 0.0 0.0 0.00 0.00 0.00 86 1014.9
20260901090504 79 157 0.0 0.0 0.00 0.00 0.00 85 1014.9
20260901090006 79 157 0.0 0.0 0.00 0.00 0.00 85 1014.9
20260901085503 79 157 0.0 1.0 0.00 0.00 0.00 85 1014.9
20260901085006 79 157 0.0 1.0 0.00 0.00 0.00 85 1014.9
20260901084502 79 157 0.0 1.0 0.00 0.00 0.00 85 1014.9
20260901084002 79 157 0.0 1.0 0.00 0.00 0.00 85 1015.0
20260901083502 79 157 0.0 0.0 0.00 0.00 0.00 85 1015.0
20260901083002 79 157 0.0 1.0 0.00 0.00 0.00 85 1015.1
20260901082501 79 157 0.0 1.0 0.00 0.00 0.00 85 1015.0
20260901082000 79 157 0.0 1.0 0.00 0.00 0.00 85 1015.1
20260901081600 79 157 0.0 1.0 0.00 0.00 0.00 85 1015.1
20260901081059 79 157 0.0 0.0 0.00 0.00 0.00 84 1015.1
20260901080559 79 157 0.0 1.0 0.00 0.00 0.00 84 1015.2
20260901080112 80 157 0.0 1.0 0.00 0.00 0.00 85 1015.3
20260901075558 80 157 0.0 1.0 0.00 0.00 0.00 85 1015.3
20260901075059 80 157 0.0 0.0 0.00 0.00 0.00 84 1015.3
20260901074619 80 157 0.0 0.0 0.00 0.00 0.00 84 1015.4
20260901074056 80 157 0.0 0.0 0.00 0.00 0.00 83 1015.3
20260901073557 80 157 0.0 0.0 0.00 0.00 0.00 83 1015.2
20260901073059 80 157 0.0 0.0 0.00 0.00 0.00 83 1015.3
20260901072558 80 157 0.0 0.0 0.00 0.00 0.00 83 1015.4
20260901072055 80 157 0.0 1.0 0.00 0.00 0.00 83 1015.4
20260901071556 80 157 0.0 1.0 0.00 0.00 0.00 83 1015.3
20260901071055 80 157 0.0 0.0 0.00 0.00 0.00 83 1015.3
20260901070554 80 157 0.0 2.0 0.00 0.00 0.00 82 1015.3
20260901070054 80 157 0.0 2.0 0.00 0.00 0.00 83 1015.3
20260901065554 80 157 0.0 2.0 0.00 0.00 0.00 82 1015.3
20260901065053 80 157 0.0 1.0 0.00 0.00 0.00 82 1015.3
20260901064553 80 157 0.0 1.0 0.00 0.00 0.00 82 1015.4
20260901064057 80 157 0.0 0.0 0.00 0.00 0.00 82 1015.4
20260901063551 81 157 0.0 1.0 0.00 0.00 0.00 81 1015.4
20260901063101 81 157 0.0 1.0 0.00 0.00 0.00 81 1015.4
20260901062551 81 157 0.0 0.0 0.00 0.00 0.00 81 1015.5
20260901062051 81 157 0.0 0.0 0.00 0.00 0.00 81 1015.5
20260901061551 81 157 0.0 1.0 0.00 0.00 0.00 81 1015.5
20260901061052 81 157 0.0 2.0 0.00 0.00 0.00 81 1015.5
20260901060551 81 157 0.0 2.0 0.00 0.00 0.00 81 1015.6
20260901060049 81 157 0.0 1.0 0.00 0.00 0.00 80 1015.6
20260901055549 81 157 0.0 0.0 0.00 0.00 0.00 80 1015.6
20260901055048 81 157 0.0 1.0 0.00 0.00 0.00 80 1015.5
20260901054548 81 157 0.0 1.0 0.00 0.00 0.00 81 1015.5
20260901054051 81 157 0.0 1.0 0.00 0.00 0.00 80 1015.5
20260901053546 82 157 0.0 0.0 0.00 0.00 0.00 80 1015.4
20260901053057 82 157 0.0 0.0 0.00 0.00 0.00 79 1015.3
20260901052545 82 157 0.0 0.0 0.00 0.00 0.00 80 1015.3
20260901052045 82 157 0.0 0.0 0.00 0.00 0.00 80 1015.3
20260901051545 82 157 0.0 1.0 0.00 0.00 0.00 80 1015.3
20260901051044 82 157 0.0 1.0 0.00 0.00 0.00 80 1015.3
20260901050547 82 157 0.0 0.0 0.00 0.00 0.00 80 1015.3
20260901050041 82 157 0.0 1.0 0.00 0.00 0.00 80 1015.2
20260901045540 82 157 0.0 1.0 0.00 0.00 0.00 80 1015.2
20260901045043 82 157 0.0 1.0 0.00 0.00 0.00 80 1015.1
20260901044549 82 157 0.0 1.0 0.00 0.00 0.00 80 1015.0
20260901044040 82 157 0.0 1.0 0.00 0.00 0.00 80 1014.9
20260901043540 82 157 0.0 2.0 0.00 0.00 0.00 79 1015.0
20260901043040 82 157 0.0 2.0 0.00 0.00 0.00 79 1014.9
20260901042539 82 157 0.0 2.0 0.00 0.00 0.00 79 1014.9
20260901042042 82 157 0.0 3.0 0.00 0.00 0.00 79 1015.0
20260901041553 83 157 1.0 3.0 0.00 0.00 0.00 79 1015.0
20260901041043 83 157 0.0 3.0 0.00 0.00 0.00 79 1015.1
20260901040539 83 157 0.0 5.0 0.00 0.00 0.00 79 1015.0
20260901040053 83 157 3.0 5.0 0.00 0.00 0.00 79 1015.1
20260901035538 83 158 1.0 5.0 0.00 0.00 0.00 78 1015.0
20260901035040 83 155 1.0 5.0 0.00 0.00 0.00 78 1015.0
20260901034539 83 155 1.0 3.0 0.00 0.00 0.00 78 1015.0
20260901034038 83 155 1.0 3.0 0.00 0.00 0.00 78 1014.9
20260901033542 83 153 0.0 6.0 0.00 0.00 0.00 78 1014.8
20260901033040 83 153 2.0 6.0 0.00 0.00 0.00 78 1014.7
20260901032538 83 149 1.0 5.0 0.00 0.00 0.00 77 1014.7
20260901032042 83 166 2.0 5.0 0.00 0.00 0.00 77 1014.6
20260901031538 83 166 1.0 3.0 0.00 0.00 0.00 76 1014.6
20260901031038 84 166 1.0 5.0 0.00 0.00 0.00 76 1014.6
20260901030538 84 166 2.0 5.0 0.00 0.00 0.00 76 1014.5
20260901030038 84 169 0.0 2.0 0.00 0.00 0.00 76 1014.5
20260901025537 84 169 0.0 3.0 0.00 0.00 0.00 75 1014.4
20260901025037 84 169 1.0 4.0 0.00 0.00 0.00 75 1014.4
20260901024539 84 169 0.0 4.0 0.00 0.00 0.00 75 1014.3
20260901024036 84 150 1.0 5.0 0.00 0.00 0.00 74 1014.2
20260901023536 84 198 1.0 5.0 0.00 0.00 0.00 73 1014.2
20260901023037 84 147 1.0 5.0 0.00 0.00 0.00 73 1014.1
20260901022536 84 169 2.0 5.0 0.00 0.00 0.00 72 1014.0
20260901022038 85 171 1.0 3.0 0.00 0.00 0.00 71 1013.9
20260901021539 85 171 0.0 4.0 0.00 0.00 0.00 71 1013.8
20260901021036 85 171 0.0 4.0 0.00 0.00 0.00 70 1013.8
20260901020536 85 167 1.0 3.0 0.00 0.00 0.00 70 1013.8
20260901020036 85 167 2.0 5.0 0.00 0.00 0.00 69 1013.7
20260901015535 86 168 1.0 5.0 0.00 0.00 0.00 69 1013.6
20260901015035 86 166 0.0 3.0 0.00 0.00 0.00 68 1013.6
20260901014535 86 148 1.0 3.0 0.00 0.00 0.00 67 1013.7
20260901014036 86 148 1.0 5.0 0.00 0.00 0.00 66 1013.7
20260901013535 86 148 0.0 5.0 0.00 0.00 0.00 65 1013.7
20260901013035 87 170 3.0 5.0 0.00 0.00 0.00 64 1013.6
20260901012534 87 171 2.0 4.0 0.00 0.00 0.00 64 1013.7
20260901012034 87 171 1.0 5.0 0.00 0.00 0.00 63 1013.7
20260901011538 87 156 2.0 5.0 0.00 0.00 0.00 63 1013.7
20260901011034 88 166 2.0 5.0 0.00 0.00 0.00 63 1013.6
20260901010534 88 160 2.0 5.0 0.00 0.00 0.00 63 1013.6
20260901010050 88 177 1.0 3.0 0.00 0.00 0.00 62 1013.5
20260901005534 88 177 0.0 3.0 0.00 0.00 0.00 62 1013.6
20260901005033 88 179 0.0 4.0 0.00 0.00 0.00 62 1013.5
20260901004536 88 179 1.0 4.0 0.00 0.00 0.00 62 1013.5
20260901004033 89 128 2.0 4.0 0.00 0.00 0.00 62 1013.5
20260901003533 89 169 2.0 5.0 0.00 0.00 0.00 62 1013.6
20260901003036 89 125 2.0 7.0 0.00 0.00 0.00 62 1013.6
20260901002533 89 123 2.0 7.0 0.00 0.00 0.00 61 1013.6
20260901002033 89 155 1.0 5.0 0.00 0.00 0.00 61 1013.7
20260901001534 89 94 1.0 4.0 0.00 0.00 0.00 61 1013.6
20260901001034 89 137 2.0 4.0 0.00 0.00 0.00 61 1013.6
20260901000531 89 137 1.0 3.0 0.00 0.00 0.00 61 1013.6
20260901000032 89 136 1.0 5.0 0.00 0.00 0.00 61 1013.7
20260831235531 89 113 2.0 5.0 0.00 0.00 0.00 61 1013.6
20260831235033 89 128 1.0 4.0 0.00 0.00 0.00 61 1013.6
20260831234530 89 171 2.0 5.0 0.00 0.00 0.00 60 1013.6
20260831234032 89 121 2.0 5.0 0.00 0.00 0.00 60 1013.7
20260831233534 89 130 2.0 6.0 0.00 0.00 0.00 60 1013.6
20260831233040 89 119 2.0 7.0 0.00 0.00 0.00 60 1013.6
20260831232531 90 91 3.0 7.0 0.00 0.00 0.00 59 1013.7
20260831232031 90 82 2.0 7.0 0.00 0.00 0.00 59 1013.6
20260831231536 90 111 3.0 8.0 0.00 0.00 0.00 58 1013.5
20260831231030 90 84 3.0 8.0 0.00 0.00 0.00 57 1013.5
20260831230529 90 124 3.0 8.0 0.00 0.00 0.00 56 1013.5
20260831230029 90 156 2.0 7.0 0.00 0.00 0.00 55 1013.6
20260831225529 90 119 1.0 7.0 0.00 0.00 0.00 54 1013.6
20260831225032 90 120 2.0 7.0 0.00 0.00 0.00 53 1013.6
20260831224528 90 127 3.0 7.0 0.00 0.00 0.00 51 1013.6
20260831224028 90 180 2.0 7.0 0.00 0.00 0.00 52 1013.6
20260831223527 90 98 3.0 7.0 0.00 0.00 0.00 52 1013.7
20260831223027 90 121 1.0 5.0 0.00 0.00 0.00 52 1013.8
20260831222526 90 147 3.0 8.0 0.00 0.00 0.00 52 1013.7
20260831222027 91 168 3.0 8.0 0.00 0.00 0.00 52 1013.7
20260831221534 90 158 2.0 8.0 0.00 0.00 0.00 52 1013.8
20260831221026 91 128 3.0 8.0 0.00 0.00 0.00 51 1013.9
20260831220529 91 156 3.0 7.0 0.00 0.00 0.00 50 1013.9
20260831220026 91 99 2.0 9.0 0.00 0.00 0.00 51 1013.9
20260831215524 91 122 3.0 9.0 0.00 0.00 0.00 51 1014.0
20260831215023 91 136 4.0 11.0 0.00 0.00 0.00 51 1014.1
20260831214522 91 161 4.0 11.0 0.00 0.00 0.00 52 1014.1
20260831214022 91 114 4.0 10.0 0.00 0.00 0.00 52 1014.2
20260831213521 91 101 5.0 11.0 0.00 0.00 0.00 53 1014.2
20260831213020 91 126 5.0 13.0 0.00 0.00 0.00 54 1014.2
20260831212520 90 131 5.0 13.0 0.00 0.00 0.00 56 1014.3
20260831212020 91 136 5.0 8.0 0.00 0.00 0.00 57 1014.4
20260831211520 91 81 3.0 8.0 0.00 0.00 0.00 60 1014.4
20260831211019 90 43 3.0 9.0 0.00 0.00 0.00 59 1014.4
20260831210518 91 53 4.0 9.0 0.00 0.00 0.00 58 1014.4
20260831210019 91 115 3.0 8.0 0.00 0.00 0.00 56 1014.5
20260831205520 91 101 3.0 7.0 0.00 0.00 0.00 55 1014.5
20260831205017 91 63 2.0 8.0 0.00 0.00 0.00 55 1014.5
20260831204517 91 58 3.0 8.0 0.00 0.00 0.00 55 1014.6
20260831204017 91 109 4.0 8.0 0.00 0.00 0.00 57 1014.7
20260831203515 91 128 4.0 10.0 0.00 0.00 0.00 57 1014.6
20260831203015 92 139 5.0 10.0 0.00 0.00 0.00 57 1014.6
20260831202514 92 108 5.0 10.0 0.00 0.00 0.00 57 1014.8
20260831202014 92 90 4.0 10.0 0.00 0.00 0.00 57 1014.8
20260831201522 93 134 5.0 10.0 0.00 0.00 0.00 55 1014.9
20260831201014 94 87 2.0 8.0 0.00 0.00 0.00 52 1014.9
20260831200512 94 90 2.0 8.0 0.00 0.00 0.00 51 1014.9
20260831200012 95 166 4.0 8.0 0.00 0.00 0.00 50 1014.9
20260831195512 96 114 3.0 7.0 0.00 0.00 0.00 48 1014.9
20260831195012 96 44 1.0 8.0 0.00 0.00 0.00 49 1014.9
20260831194512 96 84 3.0 8.0 0.00 0.00 0.00 49 1015.1
20260831194013 96 117 2.0 7.0 0.00 0.00 0.00 49 1015.1
20260831193512 97 116 2.0 8.0 0.00 0.00 0.00 48 1015.1
20260831193017 98 87 3.0 8.0 0.00 0.00 0.00 46 1015.1
20260831192511 100 103 3.0 8.0 0.00 0.00 0.00 44 1015.2
20260831192013 100 351 1.0 5.0 0.00 0.00 0.00 44 1015.2
20260831191511 99 299 1.0 5.0 0.00 0.00 0.00 45 1015.3
20260831191010 98 297 2.0 6.0 0.00 0.00 0.00 48 1015.4
20260831190509 96 107 3.0 7.0 0.00 0.00 0.00 49 1015.5
20260831190015 96 115 4.0 8.0 0.00 0.00 0.00 49 1015.5
20260831185509 96 188 3.0 8.0 0.00 0.00 0.00 49 1015.6
20260831185010 96 345 0.0 7.0 0.00 0.00 0.00 50 1015.7
20260831184509 95 39 1.0 7.0 0.00 0.00 0.00 50 1015.8
20260831184008 95 123 2.0 5.0 0.00 0.00 0.00 50 1015.8
20260831183509 94 128 1.0 6.0 0.00 0.00 0.00 51 1015.9
20260831183008 93 129 2.0 7.0 0.00 0.00 0.00 52 1015.9
20260831182508 93 74 2.0 7.0 0.00 0.00 0.00 53 1016.0
20260831182011 93 121 3.0 7.0 0.00 0.00 0.00 53 1016.1
20260831181509 94 137 2.0 8.0 0.00 0.00 0.00 52 1016.1
20260831181007 94 103 3.0 6.0 0.00 0.00 0.00 52 1016.2
20260831180506 95 142 2.0 7.0 0.00 0.00 0.00 49 1016.3
20260831180006 96 96 3.0 7.0 0.00 0.00 0.00 48 1016.3
20260831175506 97 202 1.0 5.0 0.00 0.00 0.00 48 1016.3
20260831175007 96 31 1.0 7.0 0.00 0.00 0.00 49 1016.4
20260831174513 96 98 3.0 7.0 0.00 0.00 0.00 49 1016.4
20260831174006 97 149 2.0 7.0 0.00 0.00 0.00 48 1016.5
20260831173505 98 135 4.0 6.0 0.00 0.00 0.00 47 1016.5
20260831173013 98 36 2.0 6.0 0.00 0.00 0.00 46 1016.7
20260831172505 98 55 2.0 5.0 0.00 0.00 0.00 48 1016.7
20260831172005 96 142 2.0 9.0 0.00 0.00 0.00 48 1016.7
20260831171512 96 186 1.0 9.0 0.00 0.00 0.00 49 1016.7
20260831171006 96 338 2.0 7.0 0.00 0.00 0.00 50 1016.8
20260831170504 95 360 2.0 7.0 0.00 0.00 0.00 50 1016.8
20260831170010 94 146 4.0 7.0 0.00 0.00 0.00 51 1016.8
20260831165506 95 161 3.0 6.0 0.00 0.00 0.00 51 1016.8
20260831165002 98 164 2.0 6.0 0.00 0.00 0.00 47 1016.8
20260831164503 98 44 1.0 4.0 0.00 0.00 0.00 46 1016.8
20260831164002 98 48 0.0 3.0 0.00 0.00 0.00 47 1016.8
20260831163501 96 36 1.0 6.0 0.00 0.00 0.00 49 1016.9
20260831163002 94 355 2.0 6.0 0.00 0.00 0.00 50 1016.9
20260831162505 95 105 3.0 6.0 0.00 0.00 0.00 50 1016.9
20260831162002 95 355 2.0 8.0 0.00 0.00 0.00 51 1016.9
20260831161500 93 104 3.0 8.0 0.00 0.00 0.00 52 1017.0
20260831161001 94 165 3.0 8.0 0.00 0.00 0.00 51 1017.0
20260831160600 94 52 3.0 8.0 0.00 0.00 0.00 52 1017.0
20260831160100 94 143 2.0 5.0 0.00 0.00 0.00 52 1017.0
20260831155600 94 156 2.0 5.0 0.00 0.00 0.00 54 1017.1
20260831155100 95 103 3.0 5.0 0.00 0.00 0.00 53 1017.1
20260831154559 96 121 3.0 7.0 0.00 0.00 0.00 50 1017.0
20260831154059 100 79 3.0 7.0 0.00 0.00 0.00 48 1016.9
20260831153557 100 5 1.0 4.0 0.00 0.00 0.00 48 1016.9
20260831153058 99 14 1.0 3.0 0.00 0.00 0.00 48 1016.9
20260831152555 98 360 1.0 4.0 0.00 0.00 0.00 50 1016.9
20260831152053 96 31 2.0 4.0 0.00 0.00 0.00 52 1017.0
20260831151604 96 38 0.0 3.0 0.00 0.00 0.00 54 1017.0
20260831151050 95 36 1.0 3.0 0.00 0.00 0.00 54 1016.9
20260831150548 95 37 0.0 3.0 0.00 0.00 0.00 55 1016.8
20260831150047 95 36 1.0 3.0 0.00 0.00 0.00 57 1016.8
20260831145546 94 157 0.0 2.0 0.00 0.00 0.00 61 1016.8
20260831145045 93 157 0.0 2.0 0.00 0.00 0.00 61 1016.8
20260831144546 92 157 0.0 3.0 0.00 0.00 0.00 63 1016.7
20260831144044 92 157 0.0 3.0 0.00 0.00 0.00 64 1016.6
20260831143544 92 156 1.0 3.0 0.00 0.00 0.00 63 1016.7
20260831143043 91 167 0.0 3.0 0.00 0.00 0.00 65 1016.7
20260831142542 90 166 0.0 3.0 0.00 0.00 0.00 67 1016.7
20260831142042 91 166 1.0 4.0 0.00 0.00 0.00 66 1016.6
20260831141542 90 159 0.0 2.0 0.00 0.00 0.00 69 1016.7
20260831141042 89 159 0.0 2.0 0.00 0.00 0.00 71 1016.5
20260831140541 89 159 0.0 3.0 0.00 0.00 0.00 71 1016.5
20260831140047 89 159 0.0 3.0 0.00 0.00 0.00 71 1016.5
20260831135535 88 170 0.0 2.0 0.00 0.00 0.00 72 1016.5
20260831135036 87 170 0.0 2.0 0.00 0.00 0.00 74 1016.4
20260831134538 87 170 0.0 1.0 0.00 0.00 0.00 75 1016.4
20260831134032 86 170 0.0 2.0 0.00 0.00 0.00 78 1016.3